This demonstration page uses our WeatherBlox Daily Observations layout. Learn more.

Left ArrowRight Arrow

39.12711, -84.51439

Hourly Observations for August 19, 2018

Temp ( °F °C ) Dew Point ( °F °C ) Humidity (%) Winds ( mph kmh ) Pressure ( in mb ) Visibility ( mi km ) Precip ( " mm )
12:53 am 00:53 Clear with Mist and Fog 69 20.6 69 20.6 100 100 N N/A 29.93 1013 3 5 N/A
1:53 am 01:53 Clear with Mist and Fog 69 20.6 69 20.6 100 100 N N/A 29.93 1013 4 6 N/A
2:53 am 02:53 Clear with Mist and Fog 68 20 68 20 100 100 N N/A 29.93 1013 4 6 N/A
3:11 am 03:11 Clear with Mist and Fog 67 19.4 67 19.4 100 100 N N/A 29.91 1013 2 3 N/A
3:22 am 03:22 Clear with Mist and Fog 68 20 68 20 100 100 N N/A 29.91 1013 3 5 N/A
3:53 am 03:53 Clear with Mist and Fog 68 20 68 20 100 100 N N/A 29.92 1013 4 6 N/A
4:09 am 04:09 Clear with Mist and Fog 66 18.9 66 18.9 100 100 N N/A 29.91 1013 2 3 N/A
4:20 am 04:20 Mostly Clear with Mist and Fog 67 19.4 67 19.4 100 100 N N/A 29.91 1013 4 6 N/A
4:35 am 04:35 Mostly Clear with Mist and Fog 66 18.9 66 18.9 100 100 N N/A 29.91 1013 3 4 N/A
4:42 am 04:42 Mostly Clear with Mist and Fog 67 19.4 67 19.4 100 100 N N/A 29.91 1013 4 6 N/A
4:53 am 04:53 Mostly Clear with Mist and Fog 67 19.4 67 19.4 100 100 N N/A 29.92 1013 4 6 N/A
5:53 am 05:53 Clear 67 19.4 67 19.4 100 100 N N/A 29.93 1013 7 11 N/A
6:10 am 06:10 Clear with Mist and Fog 66 18.9 66 18.9 100 100 N N/A 29.91 1013 2 2 N/A
6:23 am 06:23 Partly Cloudy with Mist and Fog 66 18.9 66 18.9 100 100 E 3 6 29.91 1013 1 2 N/A
6:35 am 06:35 Mostly Cloudy with Mist and Fog 67 19.4 67 19.4 100 100 N N/A 29.91 1013 4 6 N/A
6:53 am 06:53 Partly Cloudy 66 18.9 66 18.9 100 100 N N/A 29.94 1014 7 11 N/A
7:53 am 07:53 Mostly Sunny 68 20 68 20 100 100 N N/A 29.96 1015 10 16 N/A
8:53 am 08:53 Sunny 72 22.2 68 20 87 87 NE 3 6 29.96 1015 10 16 N/A
9:53 am 09:53 Sunny 74 23.3 69 20.6 85 85 NNE 6 9 29.97 1015 10 16 N/A
10:53 am 10:53 Sunny 77 25 68 20 74 74 NNE 5 7 29.98 1015 10 16 N/A
11:53 am 11:53 Sunny 80 26.7 69 20.6 69 69 NE 7 11 29.97 1015 10 16 N/A
12:53 pm 12:53 Sunny 83 28.3 67 19.4 59 59 VRB 5 7 29.97 1015 10 16 N/A
1:53 pm 13:53 Sunny 85 29.4 66 18.9 53 53 N 9 15 29.96 1015 10 16 N/A
2:53 pm 14:53 Mostly Sunny 86 30 66 18.9 51 51 NE 8 13 29.95 1014 10 16 N/A
3:53 pm 15:53 Partly Cloudy 85 29.4 65 18.3 51 51 N N/A 29.95 1014 10 16 N/A
4:53 pm 16:53 Partly Cloudy 86 30 66 18.9 51 51 NE 7 11 29.93 1014 10 16 N/A
5:53 pm 17:53 Mostly Sunny 85 29.4 68 20 57 57 NE 7 11 29.92 1013 10 16 N/A
6:53 pm 18:53 Mostly Sunny 83 28.3 68 20 61 61 ENE 5 7 29.92 1013 10 16 N/A
7:53 pm 19:53 Sunny 78 25.6 69 20.6 74 74 ENE 6 9 29.93 1014 10 16 N/A
8:53 pm 20:53 Clear 74 23.3 71 21.7 91 91 N N/A 29.94 1014 10 16 N/A
9:53 pm 21:53 Clear 71 21.7 70 21.1 96 96 E 3 6 29.97 1015 10 16 N/A
10:53 pm 22:53 Clear 70 21.1 69 20.6 97 97 N N/A 29.97 1015 9 14 N/A
11:53 pm 23:53 Clear 69 20.6 68 20 96 96 N N/A 29.98 1015 7 11 N/A

Powered by AerisWeather